Location: Chuathbaluk
(61.5726°N, 159.2454°W)
Time: 13:51:09
(UTC+00:00)

DELFI C3 - Pass Details

Date: 24 January 2021
Orbit: 531 x 550 km, 97.4° (Epoch: 04 March)

Event Time Altitude Azimuth Distance (km) Brightness Sun altitude
Exits shadow 04:08:20 19° 67° (ENE) 1,376 ? -12.1°
Maximum altitude 04:09:09 20° 51° (NE) 1,330 ? -12.2°
Drops below altitude 10° 04:12:02 10° 4° (N) 1,845 ? -12.5°
Sets 04:14:36 0° 347° (NNW) 2,744 ? -12.8°
